Location: Grand Rapids
(42.9630°N, 85.6680°W)
Time: 02:53:58
(UTC-04:00)

A-11 Canister half - Pass Details

Date: 31 May 2024
Orbit: 1524 x 1684 km, 47.3° (Epoch: 21 June)

Event Time Altitude Azimuth Distance (km) Brightness Sun altitude
Rises 19:20:45 0° 215° (SW) 4,664 11.8 18.4°
Reaches altitude 10° 19:23:54 10° 209° (SSW) 3,681 11.3 17.8°
Maximum altitude 19:32:36 48° 139° (SE) 1,930 9.4 16.2°
Drops below altitude 10° 19:41:26 10° 69° (ENE) 3,739 10.6 14.7°
Sets 19:44:40 0° 64° (ENE) 4,743 11.1 14.1°
